CZ-4 DEB, 26436

Orbit data source: Space-Track

CZ-4 DEB, 26436 is space debris in SSO originally from a launch on Thu, 14 Oct 1999 UTC launched from the Taiyaun Space Center, China (TSC). Debris objects in space refer to the collection of defunct objects orbiting the Earth. Examples of debris include non-operational satellites, rocket bodies, and fragments generated from explosions, collisions, or faulty payload assembly.

Loading next visibility...
Identifier
26436, 1999-057KH
Orbit
SSO
Country
Flag of CNCN / PRC
Related business
Manufacturer
Unknown
Mission
Spacecraft
Bus & Motor
Unknown
Mass
Unknown
Launch date (UTC)
1999-10-14 (26 years ago)
Launch vehicle
Unknown
Launch site
Taiyaun Space Center, China (TSC)
Object type
Payload
Rocket body
Debris
Shape & HBR
Unknown shape, 0.1 m
Radar Cross Section
Small (<0.1 m²)

Expand to show TLE details & history
Last TLE update: 18 hours ago

TLE from 18 hours ago
0 CZ-4 DEB
1 26436U 99057KH  25350.20331054  .00000505  00000-0  59098-3 0  9998
2 26436  99.5314  80.4371 0700986 299.8020  53.5154 12.98000558579100
Epoch: 2025-12-16T04:52Z
TLE epoch observation values (Epoch: 2025-12-16T04:52:46.030Z)
Latitude
0.00003°
Longitude
-77.84559°
Altitude
979.691 km
Speed
7.501 km/s
True Right ascension
05h 21m 44s
True Declination
0° 00' 00"
Sunlit
Object was in full shadow at epoch
Visualization orbit readout
Latitude
Unknown
Longitude
Unknown
Altitude
Unknown
Speed
Unknown
Apparent Right ascension
Unknown
Apparent Declination
Unknown
Sunlit
N/A
Visualization observer readout
Local Sidereal Time
21:40:40
Azimuth
Unknown
Elevation
Unknown
Doppler factor
Unknown
Orbital elements
Apogee altitude
1,803.21 km
Perigee altitude
731.345 km
Semi-major axis
7,645.415 km
Eccentricity
0.0701
Inclination
99.5314°
RAAN
80.4371°
Arg. of periapsis
299.802°
True anomaly
60.31191°
Mean anomaly
53.5154°
Eccentric anomaly
56.87918°
Mean motion
3.2467 °/min
Orbital period
110.88 mins
BSTAR
0.00059098
Loading maneuver chart data...
Computing Atmospheric mass density...
Loading historical data...
Loading historical data...
Loading historical data...
Loading historical data...
Loading historical data...
Loading historical data...
Loading historical data...

Documentation

Showing up to 5 results
|